This is the latest recevied weather packets stored in our database for station/object W0WC. If no packets are shown the sender has not sent any weather packets the latest 1 day(s).
| Time | Temp. | Humidity | Pressure | Rain* | Wind** | Luminosity | Snow |
|---|---|---|---|---|---|---|---|
| 1778017943 | 10° C | 75% | 1010.2 hPa | 0 mm | 4.47 m/s, 11° | 60 W/m² | - |
| 1778017640 | 10° C | 75% | 1010.2 hPa | 0 mm | 3.58 m/s, 343° | 66 W/m² | - |
| 1778017338 | 10° C | 74% | 1009.8 hPa | 0 mm | 3.58 m/s, 16° | 98 W/m² | - |
| 1778017035 | 10° C | 74% | 1010.3 hPa | 0 mm | 1.34 m/s, 59° | 88 W/m² | - |
| 1778016732 | 10° C | 74% | 1010 hPa | 0 mm | 3.58 m/s, 23° | 96 W/m² | - |
| 1778016428 | 10° C | 75% | 1010.1 hPa | 0 mm | 3.58 m/s, 357° | 70 W/m² | - |
| 1778016126 | 10° C | 76% | 1010.1 hPa | 0 mm | 2.68 m/s, 46° | 90 W/m² | - |
| 1778015822 | 10° C | 76% | 1010.2 hPa | 0 mm | 2.68 m/s, 31° | 81 W/m² | - |
| 1778015520 | 10° C | 76% | 1010.2 hPa | 0 mm | 3.13 m/s, 1° | 70 W/m² | - |
| 1778015216 | 10° C | 76% | 1010.5 hPa | 0 mm | 2.24 m/s, 24° | 60 W/m² | - |
| 1778014913 | 10° C | 75% | 1010.3 hPa | 0 mm | 4.47 m/s, 0° | 56 W/m² | - |
| 1778014610 | 10° C | 75% | 1010.3 hPa | 0 mm | 5.81 m/s, 10° | 57 W/m² | - |
| 1778014308 | 10° C | 74% | 1010.3 hPa | 0 mm | 2.24 m/s, 50° | 62 W/m² | - |
| 1778014005 | 10° C | 73% | 1010.2 hPa | 0 mm | 4.47 m/s, 32° | 70 W/m² | - |
| 1778013703 | 10° C | 73% | 1010.1 hPa | 0 mm | 5.36 m/s, 25° | 65 W/m² | - |
| 1778013400 | 10.56° C | 72% | 1010.2 hPa | 0 mm | 3.58 m/s, 32° | 65 W/m² | - |
| 1778013096 | 10.56° C | 71% | 1010.1 hPa | 0 mm | 1.79 m/s, 14° | 67 W/m² | - |
| 1778012792 | 10.56° C | 69% | 1010.2 hPa | 0 mm | 0.89 m/s, 11° | 69 W/m² | - |
| 1778012488 | 10.56° C | 71% | 1010.2 hPa | 0 mm | 4.47 m/s, 17° | 100 W/m² | - |
| 1778012185 | 10.56° C | 71% | 1010.1 hPa | 0 mm | 2.68 m/s, 43° | 95 W/m² | - |
| 1778011883 | 10.56° C | 69% | 1010 hPa | 0 mm | 5.36 m/s, 38° | 57 W/m² | - |
| 1778011581 | 10.56° C | 72% | 1010 hPa | 0 mm | 4.47 m/s, 88° | 83 W/m² | - |
| 1778011278 | 10.56° C | 73% | 1010.2 hPa | 0 mm | 4.02 m/s, 16° | 86 W/m² | - |
| 1778010974 | 11.11° C | 73% | 1010 hPa | 0 mm | 2.68 m/s, 26° | 100 W/m² | - |
| 1778010671 | 11.11° C | 70% | 1010 hPa | 0 mm | 3.13 m/s, 338° | 115 W/m² | - |
* Rain latest hour (hover to see other rain measurements)
** Current wind speed in m/s (hover to see current wind gust speed)